Location: Grandview
(34.8900°N, 117.1058°W)
Time: 14:33:36
(UTC-08:00)

Envisat - Pass Details

Date: 10 October 2017
Orbit: 764 x 766 km, 98.2° (Epoch: 16 December)

Event Time Altitude Azimuth Distance (km) Brightness Sun altitude
Exits shadow 21:28:11 20° 313° (NW) 1,714 5.3 -38.9°
Drops below altitude 10° 21:30:01 10° 327° (NNW) 2,307 6.0 -39.3°
Sets 21:32:33 0° 337° (NNW) 3,237 6.8 -39.7°
